User: anonymous   Login
Location: Unspecified
(0.0000°N, 0.0000°E)
Time: 15:15:41
(UTC+00:00)
Language:

TerraSAR-X - Orbit

View from above orbital plane
View from above orbital plane
View from above satellite
View from above satellite

Ground track
Ground track

The orbit data is extracted from the following two-line orbital elements,

1 31698U 07026A   21172.67981981  .00000411  00000-0  22746-4 0  9995
2 31698  97.4455 180.4282 0002253  81.8242 329.3049 15.19153283777352
Epoch (UTC): 21 June 2021 16:18:56
Eccentricity: 0.0002253
inclination: 97.4455°
perigee height: 507 km
apogee height: 510 km
right ascension of ascending node: 180.4282°
argument of perigee: 81.8242°
revolutions per day: 15.19153283
mean anomaly at epoch: 329.3049°
orbit number at epoch: 77735

The dashed part of the orbit path shows where the satellite is in the earth's shadow,  

DLR